Starlink 31844

operational
NORAD ID: 60583 Int'l Des: 2024-150 Owner: SPXS Country: US Constellation: starlink
LEOCIRCULAR

关于 Starlink 31844

正在加载描述...

实时位置

正在加载3D地球...

即将过境

高度历史

Altitude vs Time

uPlot chart will show altitude changes over time

两行轨道根数

1 60583U 24150A 25353.14347405 .00000543 00000-0 30461-4 0 9990
2 60583 53.1618 320.8558 0001404 104.0809 256.0348 15.30193635 75714
Epoch: Dec 19, 2025 • Age: 25 hours

当前状态

高度 480.9 km
速度 7.63 km/s
星下点 53.25°N, 120.67°W
发射日期 Aug 20, 2024
运行时间 1.3 years
类型 internet

技术详情

分类 Payload
质量 730.00 kg
干质量 700.00 kg
总质量 730.00 kg
长度 0.30 m
直径 4.10 m
跨度 29.00 m
形状 Box + pan
制造商 SPXS
平台类型 Starlink V2M
阶段状态 In Orbit
所有者/国家 SPXS/US

大型星座

Loading constellations...